User: anonymous   Login
Location: ????????
(55.0808°N, 38.5463°E)
Time: 12:21:25
(UTC+00:00)
Language:

Cosmos 2297 - Orbit

View from above orbital plane
View from above orbital plane
View from above satellite
View from above satellite

Ground track
Ground track

The orbit data is extracted from the following two-line orbital elements,

1 23404U 94077A   24175.86494679  .00000107  00000-0  81529-4 0  9999
2 23404  71.0161 325.7811 0016816 221.6178 138.3665 14.13745317526312
Epoch (UTC): 23 June 2024 20:45:31
Eccentricity: 0.0016816
inclination: 71.0161°
perigee height: 834 km
apogee height: 859 km
right ascension of ascending node: 325.7811°
argument of perigee: 221.6178°
revolutions per day: 14.13745317
mean anomaly at epoch: 138.3665°
orbit number at epoch: 52631

The dashed part of the orbit path shows where the satellite is in the earth's shadow,  

DLR